When you browse on this site, cookies collect data to enhance your experience and personalize the content and advertising you see.
Visit our Privacy Policy to learn more. By continuing to use the site, you agree to this use of cookies and data.
  • Em Portugal
  • Lista de países
  • Para 7 dias
  • Temperatura da água
  • Mapa do tempo
  • Widgets de tempo
  • user-avatar
    Iniciar Sessão

    Previsão horária em Kocuby

    Hoje, 19 Setembro, Quinta-feira

    Tempo Temperatura Precipitação Vento Pressão Humidade
    00:00 +5°C° 0.1 mm 2 m/s 719 mmHg 85%
    01:00 +5°C° 0.1 mm 2 m/s 720 mmHg 89%
    02:00 +5°C° 0.1 mm 2 m/s 720 mmHg 90%
    03:00 +4°C° 0.1 mm 2 m/s 720 mmHg 92%
    04:00 +4°C° 0.1 mm 2 m/s 720 mmHg 93%
    05:00 +5°C° 0 mm 2 m/s 720 mmHg 90%
    06:00 +5°C° 0 mm 2 m/s 720 mmHg 88%
    07:00 +6°C° 0 mm 2 m/s 720 mmHg 85%
    08:00 +7°C° 0.1 mm 2 m/s 720 mmHg 79%
    09:00 +8°C° 0.1 mm 3 m/s 721 mmHg 72%
    10:00 +10°C° 0.1 mm 3 m/s 721 mmHg 66%
    11:00 +10°C° 0.2 mm 4 m/s 721 mmHg 64%
    12:00 +11°C° 0.2 mm 4 m/s 721 mmHg 62%
    13:00 +11°C° 0.2 mm 4 m/s 721 mmHg 60%
    14:00 +11°C° 0.1 mm 4 m/s 721 mmHg 61%
    15:00 +11°C° 0.1 mm 4 m/s 721 mmHg 63%
    16:00 +10°C° 0.1 mm 4 m/s 721 mmHg 64%
    17:00 +9°C° 0.3 mm 3 m/s 721 mmHg 73%
    18:00 +7°C° 0.3 mm 3 m/s 721 mmHg 82%
    19:00 +6°C° 0.3 mm 2 m/s 721 mmHg 90%
    20:00 +5°C° 0.3 mm 2 m/s 721 mmHg 91%
    21:00 +5°C° 0.3 mm 2 m/s 721 mmHg 92%
    22:00 +4°C° 0.3 mm 2 m/s 721 mmHg 93%
    23:00 +4°C° 0 mm 2 m/s 721 mmHg 93%

    Amanhã, 20 Setembro, Sexta-feira

    Tempo Temperatura Precipitação Vento Pressão Humidade
    00:00 +4°C° 0 mm 2 m/s 722 mmHg 93%
    01:00 +4°C° 0 mm 2 m/s 722 mmHg 93%
    02:00 +3°C° 0 mm 2 m/s 722 mmHg 93%
    03:00 +3°C° 0 mm 2 m/s 722 mmHg 94%
    04:00 +3°C° 0 mm 2 m/s 722 mmHg 94%
    05:00 +3°C° 0 mm 2 m/s 722 mmHg 93%
    06:00 +4°C° 0 mm 2 m/s 722 mmHg 91%
    07:00 +5°C° 0 mm 2 m/s 722 mmHg 90%
    08:00 +6°C° 0 mm 2 m/s 723 mmHg 82%
    09:00 +8°C° 0 mm 2 m/s 723 mmHg 74%
    10:00 +10°C° 0 mm 3 m/s 723 mmHg 67%
    11:00 +10°C° 0.1 mm 3 m/s 723 mmHg 63%
    12:00 +11°C° 0.1 mm 3 m/s 723 mmHg 59%
    13:00 +12°C° 0.1 mm 3 m/s 723 mmHg 55%
    14:00 +11°C° 0 mm 3 m/s 722 mmHg 57%
    15:00 +11°C° 0 mm 3 m/s 722 mmHg 58%
    16:00 +12°C° 0 mm 2 m/s 722 mmHg 60%
    17:00 +9°C° 0 mm 2 m/s 722 mmHg 67%
    18:00 +9°C° 0 mm 1 m/s 722 mmHg 74%
    19:00 +7°C° 0 mm 1 m/s 722 mmHg 81%
    20:00 +7°C° 0 mm 1 m/s 722 mmHg 82%
    21:00 +6°C° 0 mm 1 m/s 722 mmHg 83%
    22:00 +6°C° 0 mm 1 m/s 722 mmHg 83%
    23:00 +6°C° 0 mm 1 m/s 722 mmHg 84%

    Depois de amanhã, 21 Setembro, Sábado

    Tempo Temperatura Precipitação Vento Pressão Humidade
    00:00 +5°C° 0 mm 1 m/s 722 mmHg 85%
    01:00 +5°C° 0 mm 1 m/s 722 mmHg 85%
    02:00 +5°C° 0 mm 1 m/s 722 mmHg 85%
    03:00 +5°C° 0 mm 1 m/s 722 mmHg 85%
    04:00 +4°C° 0 mm 1 m/s 722 mmHg 85%
    05:00 +5°C° 0 mm 1 m/s 722 mmHg 81%
    06:00 +6°C° 0 mm 1 m/s 722 mmHg 76%
    07:00 +7°C° 0 mm 1 m/s 722 mmHg 72%
    08:00 +10°C° 0 mm 1 m/s 722 mmHg 64%
    09:00 +12°C° 0 mm 1 m/s 722 mmHg 56%
    10:00 +15°C° 0 mm 1 m/s 723 mmHg 49%
    11:00 +16°C° 0 mm 1 m/s 722 mmHg 47%
    12:00 +16°C° 0 mm 1 m/s 722 mmHg 45%
    13:00 +17°C° 0 mm 2 m/s 722 mmHg 43%
    14:00 +18°C° 0 mm 1 m/s 721 mmHg 47%
    15:00 +18°C° 0 mm 1 m/s 721 mmHg 52%
    16:00 +16°C° 0 mm 1 m/s 721 mmHg 56%
    17:00 +14°C° 0 mm 1 m/s 720 mmHg 62%
    18:00 +12°C° 0 mm 1 m/s 720 mmHg 69%
    19:00 +10°C° 0 mm 1 m/s 720 mmHg 75%
    20:00 +9°C° 0 mm 1 m/s 720 mmHg 76%
    21:00 +9°C° 0 mm 1 m/s 720 mmHg 77%
    22:00 +9°C° 0 mm 1 m/s 720 mmHg 78%
    23:00 +8°C° 0 mm 1 m/s 720 mmHg 79%

    22 Setembro, Domingo

    Tempo Temperatura Precipitação Vento Pressão Humidade
    00:00 +8°C° 0 mm 1 m/s 720 mmHg 79%
    01:00 +8°C° 0 mm 1 m/s 719 mmHg 79%
    02:00 +8°C° 0 mm 1 m/s 719 mmHg 79%
    03:00 +7°C° 0 mm 1 m/s 719 mmHg 79%
    04:00 +7°C° 0 mm 1 m/s 719 mmHg 78%
    05:00 +8°C° 0 mm 1 m/s 719 mmHg 75%
    06:00 +9°C° 0 mm 1 m/s 719 mmHg 72%
    07:00 +10°C° 0 mm 1 m/s 719 mmHg 69%
    08:00 +12°C° 0 mm 1 m/s 719 mmHg 62%
    09:00 +15°C° 0 mm 1 m/s 719 mmHg 54%
    10:00 +18°C° 0 mm 1 m/s 719 mmHg 46%
    11:00 +19°C° 0 mm 1 m/s 718 mmHg 45%
    12:00 +20°C° 0 mm 1 m/s 718 mmHg 43%
    13:00 +21°C° 0 mm 1 m/s 717 mmHg 41%
    14:00 +21°C° 0 mm 1 m/s 717 mmHg 46%
    15:00 +20°C° 0 mm 1 m/s 716 mmHg 50%
    16:00 +20°C° 0 mm 1 m/s 716 mmHg 55%
    17:00 +18°C° 0 mm 1 m/s 716 mmHg 59%
    18:00 +14°C° 0 mm 1 m/s 715 mmHg 63%
    19:00 +12°C° 0 mm 2 m/s 715 mmHg 67%
    20:00 +13°C° 0 mm 2 m/s 714 mmHg 64%
    21:00 +13°C° 0 mm 2 m/s 714 mmHg 62%
    22:00 +13°C° 0 mm 1 m/s 714 mmHg 59%
    23:00 +13°C° 0 mm 2 m/s 714 mmHg 57%

    23 Setembro, Segunda-feira

    Tempo Temperatura Precipitação Vento Pressão Humidade
    00:00 +13°C° 0 mm 2 m/s 713 mmHg 55%
    01:00 +14°C° 0 mm 2 m/s 713 mmHg 53%
    02:00 +13°C° 0 mm 2 m/s 712 mmHg 53%
    03:00 +13°C° 0 mm 2 m/s 712 mmHg 54%
    04:00 +12°C° 0 mm 2 m/s 712 mmHg 55%
    05:00 +12°C° 0 mm 2 m/s 711 mmHg 57%
    06:00 +13°C° 0 mm 2 m/s 711 mmHg 59%
    07:00 +13°C° 0 mm 2 m/s 711 mmHg 62%
    08:00 +15°C° 0 mm 1 m/s 711 mmHg 58%
    09:00 +18°C° 0 mm 1 m/s 711 mmHg 54%
    10:00 +20°C° 0 mm 1 m/s 712 mmHg 50%
    11:00 +20°C° 0 mm 2 m/s 711 mmHg 51%
    12:00 +20°C° 0 mm 2 m/s 711 mmHg 52%
    13:00 +21°C° 0 mm 2 m/s 711 mmHg 53%
    14:00 +19°C° 0 mm 2 m/s 711 mmHg 59%
    15:00 +18°C° 0 mm 2 m/s 711 mmHg 65%
    16:00 +17°C° 0 mm 2 m/s 711 mmHg 71%
    17:00 +16°C° 0 mm 2 m/s 711 mmHg 74%
    18:00 +16°C° 0 mm 2 m/s 711 mmHg 76%
    19:00 +15°C° 0 mm 2 m/s 711 mmHg 79%
    20:00 +14°C° 0.5 mm 2 m/s 711 mmHg 84%
    21:00 +14°C° 0.5 mm 2 m/s 711 mmHg 89%
    22:00 +13°C° 0.5 mm 2 m/s 711 mmHg 95%
    23:00 +12°C° 0.8 mm 3 m/s 711 mmHg 94%

    24 Setembro, Terça-feira

    Tempo Temperatura Precipitação Vento Pressão Humidade
    00:00 +12°C° 0.8 mm 3 m/s 711 mmHg 93%
    01:00 +11°C° 0.8 mm 4 m/s 711 mmHg 93%
    02:00 +11°C° 0 mm 3 m/s 711 mmHg 93%
    03:00 +10°C° 0 mm 3 m/s 711 mmHg 93%
    04:00 +10°C° 0 mm 2 m/s 711 mmHg 93%
    05:00 +10°C° 0.1 mm 3 m/s 711 mmHg 93%
    06:00 +10°C° 0.1 mm 3 m/s 711 mmHg 92%
    07:00 +11°C° 0.1 mm 3 m/s 711 mmHg 91%
    08:00 +11°C° 0.9 mm 3 m/s 711 mmHg 90%
    09:00 +11°C° 0.9 mm 4 m/s 712 mmHg 89%
    10:00 +11°C° 0.9 mm 4 m/s 712 mmHg 88%
    11:00 +11°C° 1.1 mm 3 m/s 712 mmHg 89%
    12:00 +11°C° 1.1 mm 3 m/s 712 mmHg 90%
    13:00 +11°C° 1.1 mm 3 m/s 712 mmHg 91%
    14:00 +12°C° 0.2 mm 3 m/s 712 mmHg 88%
    15:00 +13°C° 0.2 mm 3 m/s 712 mmHg 86%
    16:00 +14°C° 0.2 mm 2 m/s 712 mmHg 84%
    17:00 +13°C° 0 mm 2 m/s 712 mmHg 86%
    18:00 +12°C° 0 mm 2 m/s 712 mmHg 89%
    19:00 +10°C° 0 mm 2 m/s 712 mmHg 91%
    20:00 +10°C° 0 mm 2 m/s 713 mmHg 92%
    21:00 +10°C° 0 mm 2 m/s 713 mmHg 92%
    22:00 +10°C° 0 mm 2 m/s 713 mmHg 92%
    23:00 +10°C° 0 mm 2 m/s 713 mmHg 93%
    Mostrar mais